STARLINK-1084 (44915 NORAD) Tracking and Keplerian Element Data

This shows tracking and keplerian element data for the satellite.

Feedback or suggestion? Click here.




ElementValue
Catalog44915
NameSTARLINK-1084
Epoch Orbit1328
Epoch Day93.91667824
Epoch Year2020
RAAN353.6311
Inclination53.0007
Eccentricity0.0001899
Argument of Perigee66.3298
Mean Anonmoly231.5432
Mean Motion15.05606912
Decay Rate-0.00027934
L11 44915U 20001B 20093.91667824 -.00027934 00000-0 -19041-2 0 9997
L22 44915 53.0007 353.6311 0001899 66.3298 231.5432 15.05606912 13282

Live tracking and technical data element details for STARLINK-1084 (NORAD 44915). STARLINK-1084 can be tracked NOW for your location showing map with azimuth and elevation plus other details from your city location.

Track the satellite on the map from your city or location and see movement details for azimuth, elevation, latitude, longitude, range, height, and movement on the map or in text.







IsCatalogInMostPopularTable: catalog: 44915, numindb: 21
Update: records affected: 1



GetName: 44915 STARLINK-1084

Hit Count: updated at: Fri, 10 Apr 2020 18:23:05 GMT